SCP
0 0 0 0 0 0 0 0 0 0 0 0 0 0 0 0 0 0 0 0 0 0 0 0 0 0 0 0 0 0 0 0 0 0 0 0 0 0 0 0 0 0 0 0 0 0 0 0 0
0 0 0 0 0 0 0 0 0 0 0 0 0 0 0 0 0 0 0 0 0 0 0 0 0 0 0 0 0 0 0 0 0 0 0 0 0 0 0 0 0 0 0 0 0 0 0 0 0
0 0 0 0 0 0 0 0 0 0 0 0 0 0 0 0 0 0 0 0 0 0 0 0 0 0 0 0 0 0 0 0 0 0 0 0 0 0 0 0 0 0 0 0 0 0 0 0 0
0 0 0 0 0 0 0 0 0 0 0 0 0 0 0 0 0 0 0 0 0 0 0 0 0 0 0 0 0 0 0 0 0 0 0 0 0 0 0 0 0 0 0 0 0 0 0 0 0
0 0 0 0 0 0 0 0 0 0 0 0 0 0 0 0 0 0 0 0 0 0 0 0 0 0 0 0 0 0 0 0 0 0 0 0 0 0 0 0 0 0 0 0 0 0 0 0 0
0 0 0 0 0 0 0 0 0 0 0 0 0 0 0 0 0 0 0 0 0 0 0 0 0 0 0 0 0 0 0 0 0 0 0 0 0 0 0 0 0 0 0 0 0 0 0 0 0
0 0 0 0 0 0 0 0 0 0 0 0 0 0 0 0 0 0 0 0 0 0 0 0 0 0 0 0 0 0 0 0 0 0 0 0 0 0 0 0 0 0 0 0 0 0 0 0 0
0 0 0 0 0 0 0 0 0 0 0 0 0 0 0 0 0 0 0 0 0 0 0 0 0 0 0 0 0 0 0 0 0 0 0 0 0 0 0 0 0 0 0 0 0 0 0 0 0
0 0 0 0 0 0 0 0 0 0 0 0 0 0 0 0 0 0 0 0 0 0 0 0 0 0 0 0 0 0 0 0 0 0 0 0 0 0 0 0 0 0 0 0 0 0 0 0 0
0 0 0 0 0 0 0 0 0 0 0 0 0 0 0 0 0 0 0 0 0 0 0 0 0 0 0 0 0 0 0 0 0 0 0 0 0 0 0 0 0 0 0 0 0 0 0 0 0
0 0 0 0 0 0 0 0 0 0 0 0 0 0 0 0 0 0 0 0 0 0 0 0 0 0 0 0 0 0 0 0 0 0 0 0 0 0 0 0 0 0 0 0 0 0 0 0 0
0 0 0 0 0 0 0 0 0 0 0 0 0 0 0 0 0 0 0 0 0 0 0 0 0 0 0 0 0 0 0 0 0 0 0 0 0 0 0 0 0 0 0 0 0 0 0 0 0
0 0 0 0 0 0 0 0 0 0 0 0 0 0 0 0 0 0 0 0 0 0 0 0 0 0 0 0 0 0 0 0 0 0 0 0 0 0 0 0 0 0 0 0 0 0 0 0 0
0 0 0 0 0 0 0 0 0 0 0 0 0 0 0 0 0 0 0 0 0 0 0 0 0 0 0 0 0 0 0 0 0 0 0 0 0 0 0 0 0 0 0 0 0 0 0 0 0
0 0 0 0 0 0 0 0 0 0 0 0 0 0 0 0 0 0 0 0 0 0 0 0 0 0 0 0 0 0 0 0 0 0 0 0 0 0 0 0 0 0 0 0 0 0 0 0 0
0 0 0 0 0 0 0 0 0 0 0 0 0 0 0 0 0 0 0 0 0 0 0 0 0 0 0 0 0 0 0 0 0 0 0 0 0 0 0 0 0 0 0 0 0 0 0 0 0
0 0 0 0 0 0 0 0 0 0 0 0 0 0 0 0 0 0 0 0 0 0 0 0 0 0 0 0 0 0 0 0 0 0 0 0 0 0 0 0 0 0 0 0 0 0 0 0 0
0 0 0 0 0 0 0 0 0 0 0 0 0 0 0 0 0 0 0 0 0 0 0 0 0 0 0 0 0 0 0 0 0 0 0 0 0 0 0 0 0 0 0 0 0 0 0 0 0
0 0 0 0 0 0 0 0 0 0 0 0 0 0 0 0 0 0 0 0 0 0 0 0 0 0 0 0 0 0 0 0 0 0 0 0 0 0 0 0 0 0 0 0 0 0 0 0 0
0 0 0 0 0 0 0 0 0 0 0 0 0 0 0 0 0 0 0 0 0 0 0 0 0 0 0 0 0 0 0 0 0 0 0 0 0 0 0 0 0 0 0 0 0 0 0 0 0
0 0 0 0 0 0 0 0 0 0 0 0 0 0 0 0 0 0 0 0 0 0 0 0 0 0 0 0 0 0 0 0 0 0 0 0 0 0 0 0 0 0 0 0 0 0 0 0 0
0 0 0 0 0 0 0 0 0 0 0 0 0 0 0 0 0 0 0 0 0 0 0 0 0 0 0 0 0 0 0 0 0 0 0 0 0 0 0 0 0 0 0 0 0 0 0 0 0
0 0 0 0 0 0 0 0 0 0 0 0 0 0 0 0 0 0 0 0 0 0 0 0 0 0 0 0 0 0 0 0 0 0 0 0 0 0 0 0 0 0 0 0 0 0 0 0 0
0 0 0 0 0 0 0 0 0 0 0 0 0 0 0 0 0 0 0 0 0 0 0 0 0 0 0 0 0 0 0 0 0 0 0 0 0 0 0 0 0 0 0 0 0 0 0 0 0
0 0 0 0 0 0 0 0 0 0 0 0 0 0 0 0 0 0 0 0 0 0 0 0 0 0 0 0 0 0 0 0 0 0 0 0 0 0 0 0 0 0 0 0 0 0 0 0 0
0 0 0 0 0 0 0 0 0 0 0 0 0 0 0 0 0 0 0 0 0 0 0 0 0 0 0 0 0 0 0 0 0 0 0 0 0 0 0 0 0 0 0 0 0 0 0 0 0
0 0 0 0 0 0 0 0 0 0 0 0 0 0 0 0 0 0 0 0 0 0 0 0 0 0 0 0 0 0 0 0 0 0 0 0 0 0 0 0 0 0 0 0 0 0 0 0 0
0 0 0 0 0 0 0 0 0 0 0 0 0 0 0 0 0 0 0 0 0 0 0 0 0 0 0 0 0 0 0 0 0 0 0 0 0 0 0 0 0 0 0 0 0 0 0 0 0
0 0 0 0 0 0 0 0 0 0 0 0 0 0 0 0 0 0 0 0 0 0 0 0 0 0 0 0 0 0 0 0 0 0 0 0 0 0 0 0 0 0 0 0 0 0 0 0 0
0 0 0 0 0 0 0 0 0 0 0 0 0 0 0 0 0 0 0 0 0 0 0 0 0 0 0 0 0 0 0 0 0 0 0 0 0 0 0 0 0 0 0 0 0 0 0 0 0
Wind_Speed
3 4 3 2 2 4 6 4 2 2 3 3 2 2 5 7 7 6 4 2 3 7 11 11 9 10 10 10 10 10 10 11 11 11 11 11 12 12 12 12 12 12 12 12 12 12 12 11 10
4 3 1 1 2 5 6 3 4 4 3 1 1 1 4 7 5 5 4 3 2 7 10 10 9 10 10 10 9 9 9 10 10 10 10 11 11 11 11 11 11 11 11 11 12 12 12 12 11
1 2 1 1 2 4 6 4 3 2 2 1 2 3 4 6 5 5 5 2 3 6 9 9 8 9 10 10 9 8 8 8 9 9 9 10 10 10 11 10 10 10 10 11 11 12 12 12 11
2 1 1 1 6 4 3 3 1 2 2 2 1 5 6 6 6 7 5 3 3 5 7 8 6 7 9 9 8 8 8 8 8 8 8 8 9 10 10 10 10 10 10 11 11 12 12 12 11
1 1 2 4 5 3 1 1 0 1 2 3 1 5 6 6 7 7 6 4 4 4 4 6 5 6 7 8 8 8 7 7 7 7 7 7 9 9 10 10 9 9 10 10 11 11 12 12 11
1 1 3 6 6 3 2 0 2 2 3 2 2 4 6 7 10 8 7 6 6 5 3 2 3 3 5 7 8 8 7 7 6 6 6 7 7 8 9 9 9 9 10 10 10 11 12 12 12
0 1 2 6 6 5 3 1 1 2 3 3 2 4 7 7 11 7 7 8 9 8 6 3 1 5 6 7 7 8 8 7 7 6 6 5 5 7 8 9 9 10 10 10 10 10 11 11 12
1 3 5 6 7 5 3 2 1 1 3 3 2 2 4 7 10 3 5 8 9 9 8 6 5 3 5 7 8 7 7 7 7 7 6 6 6 7 8 8 9 10 10 10 9 9 9 10 10
2 3 5 7 7 6 4 4 2 0 1 3 5 5 6 9 6 3 4 6 7 9 8 7 6 5 4 5 5 7 7 7 7 7 7 6 5 6 6 7 8 9 10 10 10 9 8 6 7
1 3 3 3 4 6 5 2 2 3 3 4 5 5 6 7 7 8 8 8 9 10 9 7 6 5 4 3 4 5 5 5 6 5 5 5 3 2 3 7 8 9 9 10 10 9 7 3 4
0 2 3 3 3 4 4 3 2 3 3 2 1 3 6 7 8 9 8 8 9 9 9 8 7 5 4 3 3 2 2 2 3 3 3 3 2 2 3 3 5 6 6 5 7 5 2 2 2
2 2 2 3 4 4 4 3 3 2 3 6 5 4 5 7 8 9 8 9 9 9 10 9 8 5 3 3 2 2 1 0 0 1 1 1 1 2 3 2 3 3 2 3 2 2 2 2 2
3 2 2 2 4 3 3 5 3 4 5 5 6 6 7 7 7 7 7 7 8 9 10 10 9 5 0 2 2 1 2 2 3 4 4 3 1 1 1 1 2 2 1 1 1 1 2 1 1
1 2 3 4 5 4 6 4 5 5 6 5 5 6 6 7 7 7 8 9 9 10 10 10 9 7 5 4 4 4 5 6 6 6 8 7 4 3 3 3 3 2 2 2 1 2 1 1 2
1 3 5 5 5 4 6 5 5 7 8 6 4 4 5 6 6 7 8 8 8 8 9 9 8 9 10 10 10 8 8 9 9 8 10 11 9 7 6 5 4 4 3 3 3 3 2 2 2
2 3 5 3 3 4 8 7 5 9 8 5 3 3 3 4 5 6 7 7 7 7 8 8 7 11 13 12 12 9 10 10 9 9 10 13 12 10 8 7 6 6 5 4 4 3 2 2 2
5 6 7 4 4 5 8 5 6 7 7 6 4 3 2 3 5 6 7 7 7 7 6 7 9 11 12 13 12 12 11 11 9 9 10 11 12 11 9 8 7 6 5 5 4 4 3 3 3
8 8 7 7 3 5 7 6 7 6 7 6 5 4 4 3 4 5 6 6 6 6 6 7 9 9 10 10 10 10 12 11 10 10 11 12 11 12 10 8 9 8 7 6 5 5 5 4 5
5 7 9 5 1 5 9 10 9 7 7 8 7 6 6 4 3 4 5 6 6 7 7 7 8 7 6 5 7 8 9 9 10 10 13 13 13 13 11 9 10 9 9 9 9 6 6 6 6
7 9 11 5 2 4 8 13 9 8 8 7 8 8 8 7 6 5 6 6 7 8 8 8 8 8 8 7 7 7 9 9 9 9 12 14 14 13 11 12 10 10 9 11 11 9 6 6 7
13 15 15 8 2 3 5 12 13 8 5 5 7 8 8 9 8 7 6 6 7 8 7 7 8 9 10 10 9 9 8 8 8 10 10 12 13 14 13 13 11 11 10 10 12 11 11 8 8
13 11 12 9 7 8 6 10 8 8 9 9 10 11 11 10 8 7 6 6 7 7 7 8 9 10 9 8 8 10 9 9 8 8 9 11 12 13 13 13 12 12 10 11 10 11 9 9 7
6 3 6 7 9 9 8 11 8 6 10 13 15 14 13 11 10 8 6 6 6 6 6 7 9 10 10 10 11 13 12 11 9 9 10 10 10 11 12 11 11 10 9 10 10 10 10 8 8
10 8 5 2 5 12 14 14 10 9 10 9 16 17 16 13 11 9 7 6 6 6 7 7 10 11 10 11 11 13 14 12 11 10 9 8 7 8 10 10 9 9 8 8 8 8 9 7 7
10 9 5 6 8 11 7 12 12 5 4 8 17 20 18 14 12 11 10 9 8 8 8 8 10 11 10 11 11 12 12 12 11 9 8 7 6 6 8 7 7 7 7 7 6 6 6 7 6
16 15 11 10 9 6 6 12 7 2 3 3 11 17 17 16 14 13 12 11 10 9 9 9 10 11 10 10 10 10 10 8 7 8 7 7 5 5 6 6 6 6 6 6 5 4 5 5 5
12 13 6 3 2 4 9 7 7 4 5 6 12 17 19 18 17 15 13 12 11 11 10 11 11 11 10 10 10 9 9 8 8 8 7 5 5 4 5 5 5 5 5 5 5 4 5 5 5
5 9 7 8 7 9 8 8 8 12 14 12 15 19 20 19 17 16 14 13 12 11 11 10 11 11 11 10 9 7 8 8 8 7 7 6 5 4 4 4 4 4 4 5 5 4 5 6 6
11 10 9 9 6 8 8 8 6 10 14 17 18 19 21 21 20 17 15 14 13 12 12 11 11 11 11 10 9 9 8 8 7 6 6 5 5 4 3 2 3 3 4 5 5 5 6 7 7
12 14 15 11 9 7 7 5 3 4 7 12 15 16 19 20 19 18 16 15 14 14 14 13 12 12 11 10 9 9 8 8 7 6 6 5 4 3 2 1 2 3 4 5 5 6 6 7 8
Wind_Direction
356 341 304 268 206 98 84 73 54 68 74 40 9 11 50 47 37 55 43 104 137 158 162 161 159 150 145 141 138 136 132 129 126 123 119 114 108 100 92 84 75 68 63 59 55 52 49 46 43
355 326 260 262 197 124 103 97 88 55 30 5 89 80 75 70 49 61 58 106 136 157 166 166 158 156 151 149 147 144 139 134 131 126 121 116 111 103 95 87 78 70 63 57 51 46 41 36 32
37 336 302 166 98 105 117 112 88 55 37 329 100 64 46 46 42 42 24 114 130 153 171 161 164 163 158 155 153 151 145 140 137 132 128 123 117 108 101 91 81 71 63 56 49 42 36 30 27
258 194 199 142 101 75 88 93 72 123 113 50 74 99 80 44 18 12 21 112 113 138 172 165 176 173 167 163 161 160 156 151 146 142 138 133 127 118 110 99 87 74 64 58 50 42 35 30 26
259 237 147 117 103 95 92 43 259 137 96 61 56 97 85 48 29 34 52 77 82 109 157 172 181 189 178 172 170 169 168 163 158 154 150 144 140 135 126 113 98 82 70 62 54 44 37 33 30
134 227 184 154 128 122 127 48 196 124 108 88 67 104 90 57 30 32 49 60 60 69 89 156 173 214 199 187 182 177 178 175 171 169 164 156 154 152 140 125 109 93 79 70 60 48 40 36 33
82 164 160 157 148 154 133 162 169 133 124 72 5 128 125 61 18 25 54 59 56 50 47 24 254 219 218 211 201 188 184 184 182 183 177 168 168 165 150 136 122 107 94 85 71 57 48 41 36
38 135 139 168 172 161 140 157 84 346 84 47 336 160 116 8 342 2 57 56 52 41 31 16 350 300 244 223 211 205 197 195 194 192 185 180 183 175 158 150 133 120 109 102 90 76 64 53 45
246 192 181 184 182 157 155 167 133 38 106 83 53 48 16 340 346 30 42 39 32 28 20 9 351 326 287 252 226 216 211 209 210 204 191 195 206 187 168 154 139 131 123 118 110 100 86 73 60
226 211 176 164 171 150 154 164 138 182 164 139 120 85 25 19 32 42 33 19 10 4 1 356 342 322 292 256 236 228 217 217 224 227 208 209 209 185 163 141 145 138 134 133 130 125 117 79 51
167 178 140 164 166 155 161 174 186 223 191 114 53 59 30 31 38 37 31 17 2 349 352 349 338 313 280 243 224 218 214 225 240 248 236 221 204 171 172 149 145 145 147 145 143 147 125 91 65
148 146 171 163 159 178 188 181 189 231 67 55 56 61 46 40 35 25 16 7 359 356 354 349 341 320 269 236 212 195 179 173 336 351 331 258 202 185 173 163 160 161 163 161 164 160 148 137 118
194 169 198 201 190 220 212 212 192 144 105 95 87 74 56 44 35 30 17 12 6 1 355 350 346 349 280 174 144 104 90 66 45 32 18 8 345 174 150 135 143 152 146 166 163 181 180 179 135
172 221 238 232 216 209 206 202 185 157 141 119 93 72 54 43 27 24 20 14 9 1 354 350 2 25 70 85 77 65 60 58 51 40 27 28 30 49 68 67 61 58 56 45 37 25 10 11 8
197 265 254 218 209 199 180 201 204 143 155 137 107 82 60 45 32 26 16 9 8 3 0 4 17 45 66 70 67 61 58 57 50 42 36 38 41 49 60 63 55 48 54 63 62 49 36 29 3
181 241 249 189 188 175 205 222 138 155 171 158 136 109 79 56 39 28 18 16 14 14 16 22 40 61 68 70 69 64 59 59 52 45 42 41 45 49 56 56 49 48 52 51 52 39 29 23 356
211 235 238 227 186 183 218 226 142 171 190 181 168 151 127 96 54 32 24 23 23 27 34 49 59 71 77 78 76 71 65 58 52 47 44 43 46 50 58 56 49 49 53 48 47 42 28 12 352
212 217 227 230 182 203 223 219 161 177 205 196 179 170 154 116 55 30 30 32 39 47 58 70 75 81 89 87 83 77 67 60 54 49 45 45 46 48 56 58 50 47 48 41 35 43 36 18 342
214 216 234 230 179 228 238 242 206 186 202 200 190 179 163 130 88 62 54 52 58 60 65 71 78 82 92 91 87 81 71 64 60 54 49 49 49 49 51 54 50 47 48 41 31 27 31 24 353
208 228 243 243 207 243 257 258 242 206 215 213 196 181 166 149 132 96 76 69 66 66 68 71 74 78 81 87 88 86 91 76 70 64 56 52 53 52 53 53 52 47 48 43 35 29 25 29 18
222 231 239 235 154 220 272 259 234 204 198 198 195 180 170 160 145 125 98 81 76 68 64 72 77 80 85 96 102 107 98 89 74 64 60 52 54 57 58 57 57 51 49 45 38 31 32 28 30
228 226 237 226 231 244 224 270 231 201 206 203 192 186 176 165 154 139 123 100 83 74 77 82 84 84 87 95 103 104 100 94 85 80 75 65 57 57 57 58 58 55 52 48 42 38 33 32 27
220 143 195 218 235 251 219 253 251 185 227 210 193 187 178 170 162 151 135 116 99 91 91 95 94 90 92 97 101 101 99 101 101 95 84 75 64 58 56 56 57 55 52 48 44 41 38 35 32
133 109 94 134 214 247 222 228 251 210 219 189 182 184 179 171 166 155 143 135 122 114 108 109 105 98 99 101 103 107 111 114 111 103 96 84 75 65 58 58 57 55 52 45 41 40 40 33 29
174 166 189 208 216 239 180 221 245 216 180 176 180 180 176 172 170 167 164 159 149 140 130 125 119 111 110 109 109 111 114 114 111 108 101 97 85 72 60 58 57 53 48 43 36 35 31 24 17
195 198 200 211 221 214 181 229 245 110 126 155 174 172 171 175 178 177 174 169 163 157 151 144 135 128 127 122 118 117 115 111 109 108 107 100 93 83 75 66 61 54 44 35 26 25 19 4 355
180 214 214 149 81 254 223 239 263 170 186 173 171 175 181 182 183 182 179 177 174 171 168 160 151 144 141 137 132 129 127 125 123 120 113 106 103 99 85 71 60 47 36 22 10 6 0 345 338
211 171 160 198 204 231 236 226 218 196 203 186 184 188 186 184 185 185 184 184 182 179 173 170 165 158 154 152 147 144 141 138 137 134 127 121 115 108 93 72 52 34 20 7 358 347 344 335 330
172 185 202 199 213 213 239 230 209 200 190 189 193 191 187 186 187 188 187 187 184 181 180 179 176 169 167 166 161 157 155 153 149 143 139 135 129 120 100 66 36 17 4 354 345 341 333 327 322
213 202 191 193 209 217 243 244 125 198 193 192 189 187 188 189 190 190 188 185 186 187 187 186 184 182 179 174 171 169 165 165 164 158 154 152 146 135 114 72 19 2 348 341 335 329 325 321 319